Temperature
12 12 12 12 12 11 11 11 11 11 11 10 10 10 10 10 10 10 10 10 10 10 10 10 10 10 10 10 10 10 10 10 10 10 10 10 10 10 10 10 10 10 10
12 12 12 11 11 11 11 11 11 10 10 10 10 10 10 10 10 10 10 10 10 10 10 10 10 10 10 10 10 10 10 10 10 10 10 10 10 10 9 10 10 10 10
12 12 11 11 11 11 11 10 10 10 10 10 10 10 10 10 10 10 10 10 10 10 10 10 10 10 9 9 9 9 10 10 9 9 9 10 10 10 9 9 10 10 9
11 11 11 11 11 11 10 10 10 10 10 10 10 10 10 10 10 10 10 10 10 10 9 9 9 9 9 9 9 9 9 9 9 9 9 9 9 9 9 9 9 10 9
11 11 11 11 10 10 10 10 10 10 10 10 10 10 10 10 10 10 10 10 9 9 9 9 9 9 9 9 9 9 9 9 9 9 9 10 9 9 9 9 9 9 9
11 11 11 11 10 10 10 10 10 10 10 10 10 10 10 10 10 10 9 9 9 9 9 9 9 9 9 9 9 9 9 9 9 9 9 9 9 9 9 9 9 9 9
11 11 11 10 10 10 10 10 10 10 10 10 9 9 9 9 9 9 9 9 9 9 9 9 9 9 9 9 9 9 9 9 9 9 9 9 9 9 9 9 9 9 9
11 11 11 11 10 10 10 10 10 10 10 10 9 9 9 9 9 9 9 9 9 9 9 8 9 9 9 9 9 9 9 9 9 9 9 9 9 9 9 9 9 9 9
11 11 11 10 10 10 10 10 10 10 10 10 10 9 9 9 9 9 9 9 9 9 9 8 9 8 9 9 9 9 9 9 9 9 9 9 9 9 9 9 9 9 9
11 11 11 10 10 10 10 10 10 10 10 10 10 10 9 9 9 9 9 9 9 9 9 9 9 9 9 9 9 8 8 9 9 9 9 9 9 9 9 9 9 9 9
11 11 10 10 10 10 10 10 10 10 10 10 10 10 9 9 9 9 9 9 9 9 9 9 9 9 9 9 8 8 9 9 9 9 9 9 9 9 9 9 9 9 9
11 11 10 10 10 10 10 10 10 10 10 10 10 10 10 10 10 9 9 9 9 9 9 9 9 9 9 9 9 9 9 9 9 9 9 9 9 9 9 9 9 9 9
11 11 10 10 10 10 10 10 10 10 11 11 11 11 10 10 10 10 9 9 9 9 9 9 9 9 9 9 9 9 9 9 9 9 9 9 9 9 9 9 9 9 9
11 10 10 10 10 10 10 10 11 11 11 11 11 11 11 10 10 10 9 9 9 9 9 9 9 9 9 9 9 9 9 9 9 9 9 9 9 9 9 9 9 9 9
11 11 11 11 11 10 10 10 10 10 10 10 10 10 10 10 10 10 10 9 9 9 9 9 9 10 10 10 9 9 9 9 9 9 9 9 9 9 9 9 9 9 9
11 11 11 11 11 11 11 11 11 10 10 10 10 10 10 10 10 10 10 10 10 10 9 9 10 10 10 10 9 9 9 9 9 9 9 9 9 9 9 9 9 9 9
11 11 11 11 11 11 11 11 11 11 11 11 10 10 10 10 10 10 10 10 10 10 10 10 10 9 9 9 9 9 9 9 9 9 9 9 9 9 9 9 9 9 9
11 11 11 11 11 11 11 11 11 11 11 11 11 11 10 10 10 10 10 10 10 10 10 10 9 9 9 9 9 9 9 9 9 8 8 8 8 8 8 8 8 8 8
11 11 11 11 11 11 11 12 12 11 11 11 11 11 11 10 10 10 10 10 10 10 9 9 9 9 9 9 9 8 8 8 8 8 8 8 8 8 8 8 8 8 8
11 11 11 11 11 12 12 12 12 12 12 11 11 11 11 11 11 10 10 10 10 9 9 9 9 8 8 8 8 8 8 8 8 8 8 8 8 8 8 8 8 8 8
12 12 11 11 12 12 12 12 12 12 12 12 11 11 10 10 11 10 10 10 9 9 9 9 8 8 8 8 8 8 8 8 8 8 7 8 8 8 8 8 8 8 8
12 12 12 12 12 11 11 12 12 12 12 12 11 11 11 10 11 10 10 10 9 9 9 8 8 8 8 8 8 7 7 7 7 7 7 7 7 7 7 7 7 7 8
12 12 12 12 12 11 12 12 12 12 11 11 11 11 11 10 10 10 10 9 9 8 8 8 8 8 7 7 7 7 7 7 6 6 6 6 7 7 7 7 7 7 7
12 12 12 12 12 12 12 12 12 11 11 11 11 11 10 10 10 9 9 9 8 8 8 8 7 7 7 7 7 6 6 6 6 6 6 6 6 6 7 7 7 7 7
12 12 12 12 12 11 11 11 11 11 11 11 11 10 10 10 9 9 9 8 8 8 7 7 7 7 6 6 6 6 6 6 6 6 6 6 6 6 6 6 6 6 6
12 12 12 12 12 11 11 11 11 11 11 10 10 10 10 9 9 9 8 8 8 7 7 7 6 6 6 6 6 6 6 6 5 5 5 5 5 5 5 5 5 6 6
Wind_Speed
2 2 1 0 0 1 2 3 3 3 3 3 3 4 4 4 4 5 5 5 5 5 5 5 5 6 5 6 5 5 5 6 7 7 6 6 6 6 5 6 6 6 6
2 2 1 1 1 1 2 2 3 3 3 3 4 4 4 4 5 5 6 6 6 6 6 6 6 5 5 6 5 6 6 6 6 8 7 6 7 6 5 5 5 5 5
2 2 1 1 1 2 2 2 3 3 3 4 4 4 4 5 5 6 6 6 6 6 6 6 6 6 6 5 6 6 6 6 6 7 7 6 6 5 5 5 5 5 5
2 1 1 1 2 2 2 2 3 3 3 4 4 4 4 5 5 6 6 6 6 6 6 6 6 6 6 6 6 6 6 6 6 6 6 6 5 4 4 5 4 4 4
2 1 1 1 1 1 1 2 2 3 4 4 4 4 4 4 4 6 6 6 6 6 5 5 5 4 5 6 6 6 7 6 6 6 6 6 5 4 4 5 5 4 4
2 1 0 1 1 1 1 2 2 3 4 4 4 4 4 4 5 5 6 5 5 5 5 5 4 4 4 5 6 7 8 7 7 6 6 6 6 6 5 5 5 5 4
1 1 1 1 1 1 2 2 3 3 3 4 4 4 4 4 4 4 5 5 5 5 6 5 5 5 5 6 5 7 7 8 8 8 8 7 7 7 7 7 6 6 6
1 1 1 1 1 1 2 2 3 3 3 3 4 4 4 3 3 4 6 4 5 5 5 5 6 6 6 7 7 6 6 6 6 6 7 8 8 7 7 7 7 7 7
1 1 1 1 1 1 2 3 3 3 3 4 4 4 4 3 2 4 6 4 4 5 5 5 5 6 6 7 7 7 7 7 6 7 8 9 9 9 8 7 7 7 7
1 1 1 0 1 1 2 3 3 3 3 4 4 4 4 4 3 3 6 4 5 5 4 4 3 4 6 7 6 7 8 8 8 7 6 7 8 9 10 9 8 7 7
1 1 1 0 1 1 2 3 3 3 3 4 4 4 4 4 3 3 5 4 5 6 5 5 4 2 6 7 7 7 9 9 8 8 7 7 6 6 6 7 8 8 7
1 1 1 0 1 1 2 3 3 3 3 3 3 4 4 3 2 2 4 5 7 6 6 6 5 5 9 10 8 8 9 9 8 7 6 7 6 6 5 6 7 9 9
2 1 1 0 1 1 2 2 3 3 4 4 4 5 5 5 2 4 5 7 7 6 6 7 10 12 11 10 10 10 9 7 7 7 7 7 7 6 6 6 6 7 9
2 1 1 1 0 1 1 2 3 4 4 5 5 6 6 5 5 5 4 4 6 6 6 7 11 13 11 9 8 7 6 5 6 7 7 7 7 6 7 6 6 6 6
2 2 1 1 0 1 2 3 4 4 4 5 6 7 7 7 8 9 7 6 7 6 7 8 7 6 6 5 5 5 5 4 5 5 7 7 7 7 7 6 6 7 7
3 2 1 1 1 2 2 2 1 3 3 5 7 7 6 6 9 10 9 9 10 8 7 6 6 7 7 7 7 6 5 5 6 6 7 7 7 8 7 7 6 7 7
3 2 2 2 2 2 2 3 3 3 6 8 8 7 7 9 10 10 10 10 10 8 6 6 6 6 7 7 7 7 7 7 7 7 7 7 8 7 7 7 7 7 7
3 3 3 2 2 3 3 4 4 4 5 5 3 6 7 8 9 9 10 9 6 3 5 6 7 7 6 6 7 7 7 7 7 7 7 7 7 8 8 8 8 8 8
3 2 2 2 3 3 3 4 4 5 5 5 6 3 3 6 9 8 7 6 7 7 7 7 7 7 7 6 6 7 7 7 7 7 7 7 7 8 8 8 8 8 9
3 2 3 3 3 3 3 4 4 5 5 5 6 6 6 7 6 5 4 6 7 7 7 7 6 7 7 7 7 7 7 7 7 7 7 8 8 8 8 9 9 9 8
2 3 5 4 3 3 3 4 5 5 6 6 6 5 6 7 7 8 7 7 7 7 7 7 6 6 6 7 7 8 8 7 7 8 8 9 9 8 8 8 8 8 8
2 2 2 2 2 3 4 5 5 5 6 7 7 5 2 6 7 8 8 7 7 6 6 7 7 7 6 7 7 7 7 7 8 8 9 10 9 9 8 8 8 8 9
2 2 2 2 2 3 4 4 5 5 6 7 7 7 7 7 8 8 8 8 7 7 7 7 7 7 6 6 6 7 7 8 9 9 10 10 10 10 9 8 10 10 9
2 2 2 3 3 4 4 4 5 6 6 6 6 6 7 7 8 8 8 7 7 7 7 7 7 8 9 8 7 7 8 9 10 9 11 11 11 10 10 9 10 11 10
2 2 2 3 3 3 4 5 5 6 6 6 6 6 7 7 7 7 8 8 8 8 9 8 7 8 10 10 9 9 10 10 10 10 10 10 11 11 10 10 10 11 11
3 2 3 3 3 3 4 5 6 6 5 5 6 6 6 7 7 7 8 8 8 8 8 8 9 10 10 9 10 10 9 10 11 12 11 9 10 9 10 9 11 10 10
Wind_Direction
150 156 172 186 237 306 304 300 302 304 302 293 295 300 306 305 300 296 293 289 284 289 285 278 280 284 282 281 274 273 274 274 275 287 292 291 288 286 283 275 266 257 242
164 161 156 255 289 302 307 301 302 300 300 300 298 300 306 307 303 299 295 294 289 288 289 289 288 285 282 282 282 280 280 276 272 281 287 290 288 283 276 275 274 264 258
162 159 171 249 286 296 304 305 304 303 305 308 306 305 305 305 302 298 292 289 289 291 292 290 288 289 286 286 286 286 283 280 273 273 282 289 287 281 275 270 274 270 261
170 170 192 255 280 279 289 302 306 303 300 303 304 303 302 304 306 303 299 297 296 294 292 290 288 291 294 293 289 286 285 285 278 275 278 281 281 279 270 270 275 264 256
184 178 214 266 276 271 292 298 298 298 298 300 304 309 309 307 318 319 311 309 306 304 303 299 299 304 309 298 297 301 297 288 284 279 279 282 281 288 279 274 274 276 267
190 213 226 254 285 295 304 310 313 317 319 316 310 312 314 322 3 342 315 312 311 312 314 311 302 283 273 254 263 278 287 288 292 290 288 288 291 285 281 278 277 273 270
195 215 212 249 310 313 318 333 330 327 328 323 319 315 320 340 346 333 319 309 313 317 316 313 315 317 306 300 272 246 258 258 262 278 289 291 293 297 297 286 278 276 276
193 201 204 223 296 325 323 332 329 325 327 321 319 318 319 343 5 335 318 303 311 313 313 310 310 310 319 317 303 294 288 282 268 261 274 281 287 292 288 282 286 277 271
188 199 196 228 305 314 324 334 331 330 334 327 329 333 330 334 356 328 310 306 314 315 315 316 311 313 337 322 301 296 294 291 264 243 255 268 277 274 273 274 269 268 270
221 205 191 235 285 306 327 322 328 325 324 322 336 337 337 332 349 321 308 304 316 315 312 306 312 307 321 320 305 298 295 299 304 297 268 254 256 251 234 241 256 264 267
215 176 171 221 294 317 327 321 314 312 323 326 330 327 325 321 313 310 306 306 315 314 314 314 327 326 298 295 288 284 288 293 293 289 287 280 265 256 246 234 241 254 264
175 181 179 190 312 347 334 327 324 319 310 316 325 323 323 319 314 311 287 284 295 304 306 310 318 312 295 283 275 276 281 282 279 281 283 286 284 279 273 264 249 247 253
167 172 168 242 327 337 324 328 323 319 327 336 335 335 337 340 320 219 247 264 269 279 298 303 292 285 283 272 250 255 264 273 283 285 284 288 291 289 282 273 260 251 253
173 175 194 218 301 9 320 330 333 337 341 340 342 341 341 339 341 342 319 294 262 271 295 286 260 257 256 266 276 264 266 281 289 291 295 293 290 286 279 278 276 267 263
178 187 207 220 333 326 330 331 331 342 342 325 333 333 334 334 347 347 321 312 314 317 313 297 300 308 309 308 308 306 300 287 280 284 290 294 298 295 290 283 277 276 274
191 202 229 246 285 305 314 320 264 261 252 247 259 284 318 322 319 318 309 292 285 286 290 296 309 316 317 319 317 314 310 304 298 295 293 295 298 298 296 291 284 280 277
208 220 260 284 289 300 312 315 320 282 229 232 240 251 262 286 297 299 298 291 277 261 274 302 313 318 321 323 321 317 315 313 309 301 300 302 305 305 304 301 294 289 288
211 206 236 271 292 300 305 308 314 322 330 330 263 225 244 263 274 284 292 296 299 279 312 320 323 324 322 324 322 319 317 315 315 311 310 308 306 304 302 299 298 297 296
221 231 258 289 290 295 301 305 314 323 327 331 333 324 242 261 255 262 274 310 328 334 335 333 333 329 324 324 322 319 319 320 322 319 316 317 313 309 307 306 303 298 291
218 207 248 270 278 293 303 312 322 325 329 333 334 340 345 332 330 331 325 331 331 333 333 332 330 323 320 323 324 322 323 327 325 320 321 322 318 314 312 309 306 300 296
215 184 200 245 278 310 315 318 325 328 331 327 331 354 341 325 333 338 340 342 339 338 335 332 329 325 324 324 325 328 329 331 331 331 327 322 318 315 314 309 306 302 299
225 232 237 275 301 309 313 314 318 322 322 326 332 344 304 311 334 337 339 340 338 337 336 334 331 333 334 332 334 330 332 336 334 333 327 321 317 315 314 313 312 309 306
233 245 263 280 293 288 288 306 316 323 327 333 339 341 339 341 340 341 343 345 343 343 341 337 333 338 344 342 338 334 339 342 335 329 322 317 316 314 313 313 311 311 308
231 257 281 302 307 305 309 314 321 327 328 334 339 338 339 343 344 347 347 348 344 344 345 343 342 346 347 344 341 348 3 352 334 324 320 314 312 313 313 314 312 313 310
234 252 281 296 301 308 316 320 322 322 323 331 333 332 336 341 345 348 349 348 345 346 346 347 346 348 349 351 355 358 3 348 332 326 315 309 311 314 315 313 311 312 313
237 250 273 287 294 304 311 312 314 319 328 333 334 337 342 343 347 349 349 352 349 349 348 349 351 352 354 355 2 359 349 338 329 318 310 308 314 320 322 316 316 316 316
Height
1503 1503 1503 1503 1503 1502 1501 1501 1500 1499 1498 1497 1496 1495 1493 1492 1491 1489 1488 1487 1485 1484 1483 1482 1481 1479 1479 1478 1477 1476 1475 1474 1471 1470 1469 1467 1465 1463 1462 1461 1460 1460 1459
1502 1502 1502 1502 1501 1501 1500 1499 1498 1498 1496 1495 1494 1493 1491 1490 1489 1487 1486 1485 1483 1481 1480 1479 1478 1477 1475 1475 1474 1473 1472 1471 1469 1466 1465 1464 1462 1460 1459 1458 1457 1456 1456
1501 1501 1501 1501 1500 1499 1498 1498 1497 1496 1495 1494 1492 1491 1489 1488 1487 1485 1484 1483 1481 1479 1477 1476 1475 1474 1473 1472 1471 1470 1469 1468 1466 1464 1462 1461 1459 1457 1456 1455 1454 1452 1452
1499 1499 1499 1499 1499 1498 1497 1497 1496 1495 1493 1492 1491 1489 1488 1486 1485 1483 1482 1480 1478 1477 1475 1473 1472 1471 1470 1469 1468 1467 1466 1464 1463 1462 1460 1458 1456 1454 1453 1453 1451 1450 1449
1498 1498 1498 1498 1497 1497 1496 1495 1494 1493 1492 1490 1489 1487 1486 1484 1483 1481 1480 1478 1476 1474 1472 1471 1470 1469 1468 1467 1466 1464 1463 1462 1460 1459 1457 1456 1454 1452 1452 1451 1450 1448 1447
1497 1497 1497 1497 1496 1496 1495 1494 1493 1492 1490 1489 1487 1486 1484 1483 1481 1479 1478 1476 1474 1472 1470 1469 1468 1467 1466 1464 1463 1462 1461 1459 1458 1456 1455 1453 1452 1451 1449 1448 1447 1446 1445
1496 1496 1496 1496 1496 1495 1494 1493 1492 1490 1489 1487 1486 1484 1483 1481 1479 1478 1476 1474 1472 1471 1469 1467 1466 1465 1464 1463 1461 1459 1458 1457 1455 1454 1452 1451 1449 1448 1446 1445 1445 1444 1443
1495 1495 1495 1495 1495 1494 1494 1493 1491 1490 1488 1486 1484 1483 1481 1480 1478 1476 1474 1473 1471 1469 1468 1466 1464 1463 1462 1460 1459 1457 1456 1454 1453 1451 1450 1448 1447 1445 1444 1443 1441 1440 1439
1495 1495 1495 1494 1494 1493 1493 1492 1490 1489 1487 1486 1484 1482 1480 1479 1477 1475 1474 1472 1470 1468 1467 1465 1463 1461 1460 1458 1456 1455 1453 1452 1450 1448 1447 1445 1443 1442 1440 1440 1439 1438 1437
1494 1494 1494 1493 1493 1493 1492 1491 1490 1489 1487 1486 1484 1482 1480 1478 1477 1475 1473 1471 1469 1467 1465 1463 1461 1460 1458 1456 1454 1452 1450 1449 1448 1446 1444 1442 1440 1439 1437 1436 1436 1435 1434
1493 1493 1493 1493 1493 1492 1491 1490 1489 1488 1487 1485 1483 1482 1480 1478 1476 1474 1472 1470 1468 1466 1464 1462 1460 1458 1456 1454 1452 1450 1448 1446 1444 1443 1441 1440 1438 1436 1435 1433 1432 1432 1431
1493 1493 1493 1493 1493 1493 1491 1490 1489 1488 1487 1485 1483 1481 1479 1477 1475 1473 1471 1469 1467 1465 1462 1461 1459 1456 1454 1452 1450 1447 1446 1444 1442 1440 1438 1437 1435 1434 1432 1430 1429 1428 1427
1493 1493 1493 1493 1493 1492 1491 1490 1489 1488 1487 1485 1483 1481 1479 1477 1475 1472 1470 1467 1465 1463 1461 1458 1456 1453 1451 1449 1447 1445 1443 1441 1439 1438 1436 1434 1432 1430 1428 1427 1425 1424 1422
1493 1493 1493 1493 1492 1492 1491 1490 1489 1488 1487 1485 1483 1481 1479 1476 1474 1471 1469 1466 1464 1461 1459 1456 1454 1451 1449 1447 1445 1443 1441 1439 1437 1435 1433 1431 1429 1427 1425 1424 1422 1420 1418
1492 1493 1493 1493 1492 1492 1491 1490 1489 1488 1486 1484 1482 1480 1478 1475 1473 1469 1467 1464 1462 1459 1456 1454 1452 1450 1448 1445 1443 1441 1439 1437 1435 1433 1431 1429 1426 1424 1422 1420 1418 1417 1415
1492 1492 1492 1492 1492 1491 1490 1489 1488 1486 1484 1483 1481 1479 1476 1474 1470 1467 1464 1462 1459 1457 1454 1453 1451 1448 1446 1444 1441 1439 1437 1435 1432 1430 1428 1426 1424 1421 1419 1417 1415 1413 1411
1491 1491 1492 1491 1491 1490 1490 1488 1487 1486 1484 1482 1479 1477 1475 1472 1469 1466 1463 1460 1457 1455 1453 1451 1449 1446 1444 1442 1439 1437 1434 1432 1430 1427 1425 1423 1421 1419 1416 1414 1412 1410 1408
1490 1491 1491 1490 1490 1489 1488 1487 1486 1484 1483 1481 1479 1476 1473 1470 1467 1464 1461 1458 1456 1454 1451 1449 1447 1444 1442 1439 1437 1435 1432 1430 1427 1425 1423 1420 1418 1415 1413 1411 1409 1406 1404
1490 1490 1490 1489 1489 1488 1487 1486 1485 1483 1481 1479 1477 1475 1472 1469 1466 1463 1460 1458 1455 1453 1450 1447 1445 1442 1440 1438 1435 1432 1430 1428 1425 1423 1421 1418 1416 1413 1410 1408 1405 1403 1401
1489 1488 1488 1488 1488 1487 1486 1485 1484 1482 1480 1478 1476 1474 1471 1468 1465 1463 1460 1457 1454 1451 1448 1445 1443 1440 1438 1436 1433 1431 1428 1426 1423 1421 1418 1416 1413 1410 1408 1405 1402 1399 1397
1488 1488 1487 1487 1487 1486 1485 1484 1483 1481 1479 1477 1475 1473 1470 1467 1464 1462 1459 1456 1453 1450 1447 1444 1441 1439 1436 1434 1431 1429 1426 1424 1421 1419 1416 1413 1410 1408 1405 1402 1399 1397 1395
1487 1487 1487 1487 1486 1485 1484 1483 1482 1480 1478 1476 1474 1471 1469 1466 1464 1461 1458 1455 1452 1449 1445 1443 1440 1437 1434 1432 1429 1427 1424 1422 1419 1416 1413 1411 1408 1405 1402 1400 1397 1394 1392
1486 1486 1486 1486 1485 1484 1483 1482 1481 1479 1477 1475 1473 1471 1468 1466 1463 1460 1457 1454 1450 1447 1444 1441 1439 1436 1433 1430 1427 1425 1422 1419 1416 1413 1411 1408 1406 1403 1400 1397 1395 1392 1390
1486 1486 1485 1485 1484 1483 1482 1481 1480 1478 1476 1474 1472 1469 1467 1464 1462 1459 1456 1452 1449 1446 1443 1440 1437 1434 1432 1429 1426 1423 1420 1416 1413 1411 1408 1405 1403 1400 1398 1395 1392 1389 1387
1485 1484 1484 1484 1483 1482 1481 1480 1478 1477 1475 1473 1471 1468 1466 1463 1460 1458 1454 1451 1448 1445 1442 1439 1436 1433 1430 1427 1423 1420 1417 1413 1410 1408 1405 1403 1400 1398 1395 1392 1389 1387 1384
1483 1483 1483 1483 1482 1481 1480 1478 1477 1475 1473 1471 1469 1467 1465 1462 1459 1456 1453 1450 1447 1444 1441 1438 1434 1431 1428 1424 1421 1417 1414 1411 1408 1405 1402 1400 1397 1395 1392 1389 1387 1384 1381